Location: Unspecified
(0.0000°N, 0.0000°E)
Time: 17:55:37
(UTC+00:00)

STARLINK 1039 - Pass Details

Date: 22 January 2020
Orbit: 548 x 551 km, 53.0° (Epoch: 17 January)

Event Time Altitude Azimuth Distance (km) Brightness Sun altitude
Rises 04:20:18 0° 199° (SSW) 2,712 7.2 -26.0°
Reaches altitude 10° 04:22:42 10° 189° (S) 1,816 6.4 -25.4°
Maximum altitude 04:26:26 33° 124° (SE) 926 5.3 -24.6°
Drops below altitude 10° 04:30:10 10° 59° (ENE) 1,809 6.7 -23.7°
Sets 04:32:32 0° 50° (NE) 2,699 7.5 -23.2°
